User: anonymous   Login
Location: Ch�tillon
(48.8024°N, 2.2935°E)
Time: 03:12:53
(UTC+00:00)
Language:

XW-2C - Orbit

View from above orbital plane
View from above orbital plane
View from above satellite
View from above satellite

Ground track
Ground track

The orbit data is extracted from the following two-line orbital elements,

1 40906U 15049H   22179.92176236  .00004311  00000-0  20777-3 0  9990
2 40906  97.4917 183.2425 0012783 326.3138  98.0331 15.19191064374667
Epoch (UTC): 28 June 2022 22:07:20
Eccentricity: 0.0012783
inclination: 97.4917°
perigee height: 499 km
apogee height: 517 km
right ascension of ascending node: 183.2425°
argument of perigee: 326.3138°
revolutions per day: 15.19191064
mean anomaly at epoch: 98.0331°
orbit number at epoch: 37466

The dashed part of the orbit path shows where the satellite is in the earth's shadow,  

DLR